Location: Dompnac
(44.5644°N, 4.1026°E)
Time: 10:21:52
(UTC+00:00)

Cosmos 1891 Rocket - Pass Details

Date: 23 January 2021
Orbit: 934 x 1018 km, 82.9° (Epoch: 24 February)

Event Time Altitude Azimuth Distance (km) Brightness Sun altitude
Rises 04:04:03 0° 169° (S) 3,659 7.6 -33.2°
Reaches altitude 10° 04:06:38 10° 164° (SSE) 2,703 6.9 -32.7°
Maximum altitude 04:12:33 49° 91° (E) 1,211 5.2 -31.6°
Drops below altitude 10° 04:18:23 10° 18° (NNE) 2,672 7.0 -30.6°
Sets 04:20:55 0° 14° (NNE) 3,613 7.7 -30.2°
